{"data":{"norad_id":69963,"epoch":"2026-09-19T22:11:59.956800Z","epoch_age_seconds":67436,"freshness":"FRESH","line1":"1 69963U 26157W   26262.92499950 -.00000046  00000+0  97631-5 0  9990","line2":"2 69963  53.1596 336.4659 0001259  87.6941 272.4206 15.34389046 11280","mean_motion":15.34389046,"eccentricity":0.0001259,"inclination_deg":53.1596,"raan_deg":336.4659,"arg_perigee_deg":87.6941,"mean_anomaly_deg":272.4206,"bstar":9.7631e-6,"rev_number":1128,"period_min":93.848428060272,"perigee_km":461.87453211198,"apogee_km":463.59706388251,"semimajor_km":6840.8727979972,"source":"CELESTRAK","updated_at":"2026-09-20T09:00:44.303063Z"}}